Weather History for South Pass, WY

Change the Weather History Date:

Tuesday, June 25, 2013

  Actual Average (KLND) Record (KLND)
Temperature  
Mean Temperature 55 °F 66 °F  
Max Temperature 66 °F 81 °F 97 °F (1988)
Min Temperature 44 °F 51 °F 31 °F (1904)
Degree Days  
Heating Degree Days 10 2  
Month to date heating degree days 117  
Since 1 June heating degree days 117  
Since 1 July heating degree days 7739  
Cooling Degree Days 0 3  
Month to date cooling degree days 45  
Year to date cooling degree days 50  
Since 1 June cooling degree days 45  
Growing Degree Days 5 (Base 50)    
Moisture  
Dew Point 36 °F    
Average Humidity 55    
Maximum Humidity 93    
Minimum Humidity 28    
Precipitation  
Precipitation 0.00 in 0.02 in 1.10 in (1985)
Month to date precipitation 1.15  
Year to date precipitation 7.37  
Snow  
Snow 0.00 in 0.00 in - ()
Month to date snowfall 0.1  
Since 1 June snowfall 0.1  
Since 1 July snowfall 91.4  
Snow Depth -    
Sea Level Pressure  
Sea Level Pressure 30.09 in    
Wind  
Wind Speed 15 mph (WSW)    
Max Wind Speed 24 mph    
Max Gust Speed 33 mph    
Visibility 10 miles    
Events      
T = Trace of Precipitation, MM = Missing Value Source: NWS Daily Summary

Daily Weather History Graph

Daily Weather History Graph

Search for Another Location

Airport:

Trip Planner

Search our weather history database for the weather conditions in past years. The results will help you decide how hot, cold, wet, or windy it might be!

Date:

Astronomy

Jun. 25, 2013 Rise Set
Actual Time 5:39 AM MDT 8:56 PM MDT
Civil Twilight 5:04 AM MDT 9:31 PM MDT
Nautical Twilight 4:18 AM MDT 10:16 PM MDT
Astronomical Twilight 3:23 AM MDT 11:11 PM MDT
Moon 10:39 PM MDT (6/25) 8:26 AM MDT (6/25)
Length of Visible Light 16h 27m
Length of Day
15h 17m
Waning Gibbous, 92% of the Moon is Illuminated
Jun 25
Waning Gibbous
Jun 29
Last Quarter
Jul 8
New
Jul 15
First Quarter
Jul 22
Full

Hourly Weather History & Observations

Time (MDT) Temp. Windchill Dew Point Humidity Pressure Visibility Wind Dir Wind Speed Gust Speed Precip Events Conditions
12:15 AM 51.8 °F - 33.8 °F 50% 29.98 in 10.0 mi WSW 24.2 mph 32.2 mph N/A   Mostly Cloudy
12:35 AM 50.0 °F - 37.4 °F 62% 30.00 in 10.0 mi West 23.0 mph 33.4 mph N/A   Mostly Cloudy
12:55 AM 46.4 °F 39.8 °F 41.0 °F 81% 30.00 in 10.0 mi West 16.1 mph 27.6 mph N/A   Overcast
1:15 AM 46.4 °F 41.1 °F 41.0 °F 81% 30.01 in 10.0 mi West 11.5 mph - N/A   Overcast
1:35 AM 46.4 °F 41.9 °F 41.0 °F 81% 30.01 in 10.0 mi WSW 9.2 mph - N/A   Overcast
1:55 AM 46.4 °F 41.1 °F 41.0 °F 81% 30.00 in 10.0 mi WSW 11.5 mph - N/A   Light Drizzle
2:15 AM 46.4 °F 41.5 °F 42.8 °F 87% 30.00 in 7.0 mi SW 10.4 mph - N/A   Drizzle
2:35 AM 44.6 °F 39.2 °F 42.8 °F 93% 30.01 in 7.0 mi WSW 10.4 mph - N/A   Drizzle
2:55 AM 44.6 °F 39.7 °F 42.8 °F 93% 30.02 in 10.0 mi WSW 9.2 mph - N/A   Overcast
3:15 AM 44.6 °F 38.4 °F 42.8 °F 93% 30.01 in 10.0 mi WSW 12.7 mph - N/A   Overcast
3:35 AM 44.6 °F 38.8 °F 42.8 °F 93% 30.00 in 10.0 mi WSW 11.5 mph 16.1 mph N/A   Mostly Cloudy
3:55 AM 44.6 °F 39.7 °F 42.8 °F 93% 29.98 in 10.0 mi WSW 9.2 mph - N/A   Clear
4:15 AM 44.6 °F 38.4 °F 41.0 °F 87% 29.98 in 10.0 mi WSW 12.7 mph 19.6 mph N/A   Clear
4:35 AM 44.6 °F 38.4 °F 41.0 °F 87% 29.98 in 10.0 mi WSW 12.7 mph 18.4 mph N/A   Clear
4:55 AM 44.6 °F 39.7 °F 41.0 °F 87% 30.00 in 10.0 mi West 9.2 mph - N/A   Clear
5:15 AM 44.6 °F 40.2 °F 41.0 °F 87% 30.01 in 10.0 mi West 8.1 mph - N/A   Clear
5:35 AM 44.6 °F 40.2 °F 41.0 °F 87% 30.01 in 10.0 mi West 8.1 mph - N/A   Clear
5:55 AM 44.6 °F 38.4 °F 41.0 °F 87% 30.01 in 10.0 mi WSW 12.7 mph 17.3 mph N/A   Clear
6:15 AM 44.6 °F 38.4 °F 41.0 °F 87% 30.02 in 10.0 mi WSW 12.7 mph 17.3 mph N/A   Clear
6:35 AM 44.6 °F 37.8 °F 41.0 °F 87% 30.02 in 10.0 mi WSW 15.0 mph 27.6 mph N/A   Clear
6:55 AM 46.4 °F 40.4 °F 41.0 °F 81% 30.02 in 10.0 mi WSW 13.8 mph 23.0 mph N/A   Clear
7:15 AM 46.4 °F 40.7 °F 39.2 °F 76% 30.04 in 10.0 mi WSW 12.7 mph 18.4 mph N/A   Clear
7:35 AM 46.4 °F 40.1 °F 41.0 °F 81% 30.05 in 10.0 mi WSW 15.0 mph 20.7 mph N/A   Clear
7:55 AM 48.2 °F - 41.0 °F 76% 30.07 in 10.0 mi WSW 10.4 mph - N/A   Mostly Cloudy
8:15 AM 50.0 °F - 41.0 °F 71% 30.08 in 10.0 mi West 8.1 mph - N/A   Overcast
8:35 AM 50.0 °F - 41.0 °F 71% 30.08 in 10.0 mi West 5.8 mph - N/A   Overcast
8:55 AM 50.0 °F - 41.0 °F 71% 30.09 in 10.0 mi West 9.2 mph - N/A   Mostly Cloudy
9:15 AM 51.8 °F - 39.2 °F 62% 30.09 in 10.0 mi West 9.2 mph 16.1 mph N/A   Mostly Cloudy
9:35 AM 51.8 °F - 39.2 °F 62% 30.10 in 10.0 mi WSW 18.4 mph 23.0 mph N/A   Overcast
9:55 AM 51.8 °F - 39.2 °F 62% 30.09 in 10.0 mi WSW 16.1 mph 20.7 mph N/A   Overcast
10:15 AM 51.8 °F - 41.0 °F 67% 30.09 in 10.0 mi WSW 15.0 mph 25.3 mph N/A   Overcast
10:35 AM 53.6 °F - 41.0 °F 62% 30.09 in 10.0 mi West 10.4 mph 19.6 mph N/A   Overcast
10:55 AM 53.6 °F - 39.2 °F 58% 30.10 in 10.0 mi West 15.0 mph 20.7 mph N/A   Overcast
11:15 AM 55.4 °F - 37.4 °F 51% 30.10 in 10.0 mi WSW 18.4 mph 25.3 mph N/A   Overcast
11:35 AM 57.2 °F - 35.6 °F 44% 30.10 in 10.0 mi West 16.1 mph 27.6 mph N/A   Overcast
11:55 AM 55.4 °F - 35.6 °F 47% 30.11 in 10.0 mi West 16.1 mph 26.5 mph N/A   Overcast
12:15 PM 59.0 °F - 33.8 °F 39% 30.12 in 10.0 mi WSW 19.6 mph 27.6 mph N/A   Overcast
12:35 PM 59.0 °F - 33.8 °F 39% 30.12 in 10.0 mi West 19.6 mph 25.3 mph N/A   Overcast
12:55 PM 60.8 °F - 32.0 °F 34% 30.12 in 10.0 mi WSW 11.5 mph 23.0 mph N/A   Overcast
1:15 PM 60.8 °F - 32.0 °F 34% 30.12 in 10.0 mi West 17.3 mph 26.5 mph N/A   Overcast
1:35 PM 60.8 °F - 32.0 °F 34% 30.12 in 10.0 mi West 16.1 mph 24.2 mph N/A   Mostly Cloudy
1:55 PM 62.6 °F - 32.0 °F 32% 30.13 in 10.0 mi WSW 17.3 mph 25.3 mph N/A   Overcast
2:15 PM 62.6 °F - 32.0 °F 32% 30.12 in 10.0 mi WSW 18.4 mph 25.3 mph N/A   Mostly Cloudy
2:35 PM 62.6 °F - 32.0 °F 32% 30.12 in 10.0 mi WSW 19.6 mph 26.5 mph N/A   Scattered Clouds
2:55 PM 64.4 °F - 32.0 °F 30% 30.12 in 10.0 mi WSW 17.3 mph 25.3 mph N/A   Scattered Clouds
3:15 PM 62.6 °F - 32.0 °F 32% 30.12 in 10.0 mi SW 15.0 mph 26.5 mph N/A   Mostly Cloudy
3:35 PM 64.4 °F - 32.0 °F 30% 30.12 in 10.0 mi West 20.7 mph 32.2 mph N/A   Mostly Cloudy
3:55 PM 66.2 °F - 32.0 °F 28% 30.13 in 10.0 mi WSW 20.7 mph 28.8 mph N/A   Mostly Cloudy
4:15 PM 64.4 °F - 32.0 °F 30% 30.13 in 10.0 mi WSW 21.9 mph 31.1 mph N/A   Mostly Cloudy
4:35 PM 66.2 °F - 32.0 °F 28% 30.13 in 10.0 mi WSW 21.9 mph 31.1 mph N/A   Mostly Cloudy
4:55 PM 64.4 °F - 32.0 °F 30% 30.13 in 10.0 mi SW 16.1 mph 28.8 mph N/A   Mostly Cloudy
5:15 PM 66.2 °F - 32.0 °F 28% 30.13 in 10.0 mi West 19.6 mph 28.8 mph N/A   Mostly Cloudy
5:35 PM 64.4 °F - 32.0 °F 30% 30.12 in 10.0 mi West 19.6 mph 29.9 mph N/A   Mostly Cloudy
5:55 PM 64.4 °F - 32.0 °F 30% 30.13 in 10.0 mi WSW 15.0 mph 28.8 mph N/A   Scattered Clouds
6:15 PM 66.2 °F - 32.0 °F 28% 30.13 in 10.0 mi WSW 17.3 mph 25.3 mph N/A   Scattered Clouds
6:35 PM 64.4 °F - 32.0 °F 30% 30.14 in 10.0 mi West 19.6 mph 26.5 mph N/A   Scattered Clouds
6:55 PM 64.4 °F - 32.0 °F 30% 30.15 in 10.0 mi West 16.1 mph 25.3 mph N/A   Scattered Clouds
7:15 PM 64.4 °F - 32.0 °F 30% 30.15 in 10.0 mi West 13.8 mph 24.2 mph N/A   Scattered Clouds
7:35 PM 62.6 °F - 32.0 °F 32% 30.16 in 10.0 mi West 12.7 mph 21.9 mph N/A   Scattered Clouds
7:55 PM 62.6 °F - 32.0 °F 32% 30.16 in 10.0 mi West 11.5 mph 18.4 mph N/A   Scattered Clouds
8:15 PM 62.6 °F - 32.0 °F 32% 30.16 in 10.0 mi WSW 15.0 mph 21.9 mph N/A   Clear
8:35 PM 60.8 °F - 32.0 °F 34% 30.16 in 10.0 mi WSW 12.7 mph 20.7 mph N/A   Clear
8:55 PM 59.0 °F - 32.0 °F 36% 30.16 in 10.0 mi WSW 6.9 mph - N/A   Clear
9:15 PM 59.0 °F - 33.8 °F 39% 30.16 in 10.0 mi West 9.2 mph - N/A   Clear
9:35 PM 59.0 °F - 33.8 °F 39% 30.16 in 10.0 mi WSW 11.5 mph 18.4 mph N/A   Clear
9:55 PM 57.2 °F - 33.8 °F 41% 30.17 in 10.0 mi West 6.9 mph 16.1 mph N/A   Clear
10:15 PM 57.2 °F - 33.8 °F 41% 30.18 in 10.0 mi WSW 6.9 mph - N/A   Clear
10:35 PM 57.2 °F - 33.8 °F 41% 30.18 in 10.0 mi Calm Calm - N/A   Clear
10:55 PM 57.2 °F - 33.8 °F 41% 30.19 in 10.0 mi Calm Calm - N/A   Clear
11:15 PM 59.0 °F - 33.8 °F 39% 30.19 in 10.0 mi WNW 5.8 mph - N/A   Clear
11:35 PM 59.0 °F - 33.8 °F 39% 30.19 in 10.0 mi WNW 8.1 mph - N/A   Clear
11:55 PM 59.0 °F - 33.8 °F 39% 30.19 in 10.0 mi West 6.9 mph 17.3 mph N/A   Clear